contact:dominique.lefevre@mio.osupytheas.fr, maurice.libes@osupytheas.fr
Project:EMSO Ligure-ouest http://www.emso-fr.org/EMSO-France
Sensor Aquadopp, line 13 Serial AQD14315 
DOI : "https://doi.org/10.17882/74513; https://doi.org/10.17882/83244" 
Title:EMSO Ligure Ouest : Data ligne ALBATROSS capteur AQUADOPP - deploiement 2021
Id,Date,Profondeur,Latitude,Longitude,X_East,Y_North,Z_Up,Amplitude_X,Amplitude_Y,Amplitude_Z,Batterie,SoundSpeed,Heading,Pitch,Roll,Pressure,Temperature,Speed,Direction
, , m, degrees North, degrees East, m.s-1, m.s-1,m.s-1, 1, 1, 1, Volt, m.s-1, degree, degree, degree, dbar, degree_C, m.s-1, degree
07,2021-11-20T21:30:00,1500.0,42.79,6.0312,-0.044,0.031,-0.003,47.0,51.0,49.0,12.6,1504.0,307.1,-0.2,-0.4,1472.755,13.11,0.053,305.2
07,2021-11-20T22:00:00,1500.0,42.79,6.0312,-0.028,0.02,-0.006,49.0,50.0,50.0,12.6,1504.0,308.1,-0.5,-0.4,1472.79,13.11,0.034,305.5
07,2021-11-20T22:30:00,1500.0,42.79,6.0312,-0.032,0.013,-0.011,48.0,49.0,47.0,12.6,1504.0,304.6,0.0,-0.1,1472.746,13.11,0.034,292.1
07,2021-11-20T23:00:00,1500.0,42.79,6.0312,-0.033,0.023,0.001,47.0,52.0,48.0,12.6,1504.0,306.1,-0.3,-0.3,1472.735,13.11,0.04,304.9
07,2021-11-20T23:30:00,1500.0,42.79,6.0312,-0.036,0.032,0.007,48.0,50.0,49.0,12.6,1504.0,306.0,-0.2,-0.5,1472.72,13.11,0.048,311.6
07,2021-11-21T00:00:00,1500.0,42.79,6.0312,-0.036,0.025,-0.007,49.0,50.0,49.0,12.6,1504.0,297.6,0.0,0.0,1472.692,13.11,0.043,304.8
07,2021-11-21T00:30:00,1500.0,42.79,6.0312,-0.03,0.028,0.0,51.0,51.0,51.0,12.6,1504.0,299.6,-0.2,-0.4,1472.635,13.11,0.041,313.0
07,2021-11-21T01:00:00,1500.0,42.79,6.0312,-0.022,0.029,0.003,50.0,49.0,49.0,12.6,1504.0,304.3,-0.2,-0.2,1472.682,13.11,0.036,322.8
07,2021-11-21T01:30:00,1500.0,42.79,6.0312,-0.028,0.025,-0.007,48.0,53.0,48.0,12.6,1504.0,294.0,-0.1,-0.4,1472.648,13.11,0.037,311.8
07,2021-11-21T02:00:00,1500.0,42.79,6.0312,-0.038,0.031,0.008,49.0,49.0,49.0,12.6,1504.0,299.3,-0.1,-0.1,1472.671,13.11,0.049,309.2
07,2021-11-21T02:30:00,1500.0,42.79,6.0312,-0.035,0.025,0.005,50.0,51.0,49.0,12.6,1504.0,302.3,-0.6,-0.4,1472.667,13.1,0.043,305.5
07,2021-11-21T03:00:00,1500.0,42.79,6.0312,-0.038,0.023,-0.007,50.0,51.0,50.0,12.6,1504.0,293.2,0.0,-0.1,1472.641,13.1,0.044,301.2
07,2021-11-21T03:30:00,1500.0,42.79,6.0312,-0.039,0.035,-0.008,49.0,50.0,50.0,12.6,1504.0,296.1,0.0,-0.4,1472.684,13.1,0.052,311.9
07,2021-11-21T04:00:00,1500.0,42.79,6.0312,-0.028,0.029,0.003,49.0,49.0,49.0,12.6,1504.0,298.3,-0.6,-0.4,1472.693,13.1,0.04,316.0
07,2021-11-21T04:30:00,1500.0,42.79,6.0312,-0.03,0.038,-0.012,48.0,50.0,50.0,12.6,1504.0,299.8,0.1,-0.3,1472.742,13.1,0.048,321.7
07,2021-11-21T05:00:00,1500.0,42.79,6.0312,-0.013,0.029,-0.007,47.0,49.0,48.0,12.6,1504.0,304.6,-0.4,-0.2,1472.769,13.1,0.031,335.9
07,2021-11-21T05:30:00,1500.0,42.79,6.0312,-0.024,0.019,-0.011,49.0,49.0,49.0,12.6,1504.0,305.9,-0.4,-0.4,1472.792,13.1,0.03,308.4
07,2021-11-21T06:00:00,1500.0,42.79,6.0312,-0.02,0.027,-0.014,49.0,51.0,51.0,12.6,1504.0,300.2,-0.5,-0.4,1472.785,13.1,0.033,323.5
07,2021-11-21T06:30:00,1500.0,42.79,6.0312,-0.026,0.025,0.005,48.0,50.0,49.0,12.6,1504.0,301.3,-0.6,-0.5,1472.833,13.1,0.036,313.9
07,2021-11-21T07:00:00,1500.0,42.79,6.0312,-0.018,0.018,0.002,50.0,50.0,48.0,12.6,1504.0,296.8,-0.2,0.0,1472.874,13.1,0.025,315.0
07,2021-11-21T07:30:00,1500.0,42.79,6.0312,-0.027,0.03,0.002,49.0,51.0,51.0,12.6,1504.0,299.5,-0.2,0.0,1472.878,13.1,0.04,318.0
07,2021-11-21T08:00:00,1500.0,42.79,6.0312,-0.024,0.016,-0.008,50.0,51.0,52.0,12.6,1504.0,304.0,-0.5,-0.2,1472.892,13.11,0.028,303.7
07,2021-11-21T08:30:00,1500.0,42.79,6.0312,-0.024,0.025,-0.01,50.0,50.0,50.0,12.6,1504.0,301.9,-0.2,-0.4,1472.884,13.11,0.034,316.2
07,2021-11-21T09:00:00,1500.0,42.79,6.0312,-0.031,0.024,-0.006,50.0,53.0,52.0,12.6,1504.0,306.2,-0.2,-0.3,1472.885,13.1,0.039,307.7
07,2021-11-21T09:30:00,1500.0,42.79,6.0312,-0.032,0.027,-0.002,50.0,50.0,52.0,12.6,1504.0,303.3,-0.1,0.0,1472.89,13.11,0.041,310.2
07,2021-11-21T10:00:00,1500.0,42.79,6.0312,-0.022,0.028,0.002,49.0,52.0,49.0,12.6,1504.0,312.6,-0.4,-0.4,1472.893,13.11,0.035,321.8
07,2021-11-21T10:30:00,1500.0,42.79,6.0312,-0.027,0.037,-0.005,50.0,49.0,49.0,12.6,1504.0,307.9,-0.3,-0.4,1472.865,13.11,0.045,323.9
07,2021-11-21T11:00:00,1500.0,42.79,6.0312,-0.031,0.024,0.005,50.0,51.0,49.0,12.6,1504.0,311.1,-0.1,-0.4,1472.849,13.11,0.039,307.7
07,2021-11-21T11:30:00,1500.0,42.79,6.0312,-0.028,0.024,-0.015,49.0,51.0,50.0,12.6,1504.0,313.1,-0.1,-0.1,1472.809,13.11,0.036,310.6
07,2021-11-21T12:00:00,1500.0,42.79,6.0312,-0.043,0.023,0.0,50.0,51.0,51.0,12.6,1504.0,311.3,-0.4,-0.4,1472.769,13.11,0.048,298.1
07,2021-11-21T12:30:00,1500.0,42.79,6.0312,-0.022,0.038,0.0,49.0,51.0,52.0,12.6,1504.0,315.6,-0.4,-0.4,1472.744,13.11,0.043,329.9
07,2021-11-21T13:00:00,1500.0,42.79,6.0312,-0.028,0.025,0.0,50.0,51.0,51.0,12.6,1504.0,310.4,-0.3,0.0,1472.726,13.11,0.037,311.8
07,2021-11-21T13:30:00,1500.0,42.79,6.0312,-0.015,0.025,0.007,51.0,51.0,52.0,12.6,1504.0,316.3,0.0,-0.3,1472.701,13.11,0.029,329.0
07,2021-11-21T14:00:00,1500.0,42.79,6.0312,-0.025,0.022,0.0,51.0,51.0,50.0,12.6,1504.0,317.0,-0.1,-0.5,1472.674,13.11,0.033,311.3
07,2021-11-21T14:30:00,1500.0,42.79,6.0312,-0.023,0.024,0.008,49.0,50.0,52.0,12.6,1504.0,317.0,-0.2,-0.1,1472.665,13.11,0.033,316.2
07,2021-11-21T15:00:00,1500.0,42.79,6.0312,-0.028,0.015,0.006,53.0,51.0,49.0,12.6,1504.0,316.1,0.0,-0.5,1472.745,13.11,0.031,298.2
07,2021-11-21T15:30:00,1500.0,42.79,6.0312,-0.023,0.021,0.003,50.0,49.0,48.0,12.6,1504.0,308.4,-0.4,-0.2,1472.718,13.11,0.031,312.4
07,2021-11-21T16:00:00,1500.0,42.79,6.0312,-0.019,0.023,-0.002,51.0,48.0,51.0,12.6,1504.0,311.2,-0.2,-0.4,1472.736,13.11,0.029,320.4
07,2021-11-21T16:30:00,1500.0,42.79,6.0312,-0.026,0.033,-0.003,51.0,50.0,49.0,12.6,1504.0,311.6,-0.1,-0.2,1472.731,13.11,0.042,321.8
07,2021-11-21T17:00:00,1500.0,42.79,6.0312,-0.028,0.041,0.0,50.0,49.0,51.0,12.6,1504.0,307.6,-0.5,-0.4,1472.739,13.11,0.049,325.7
07,2021-11-21T17:30:00,1500.0,42.79,6.0312,-0.029,0.029,0.017,48.0,50.0,48.0,12.6,1504.0,305.9,-0.1,-0.2,1472.779,13.11,0.041,315.0
07,2021-11-21T18:00:00,1500.0,42.79,6.0312,-0.034,0.029,-0.003,48.0,49.0,51.0,12.6,1504.0,304.4,-0.1,-0.3,1472.787,13.11,0.044,310.5
07,2021-11-21T18:30:00,1500.0,42.79,6.0312,-0.018,0.03,0.003,49.0,49.0,48.0,12.6,1504.0,307.1,-0.2,-0.1,1472.807,13.11,0.034,329.0
07,2021-11-21T19:00:00,1500.0,42.79,6.0312,-0.028,0.025,0.007,48.0,48.0,49.0,12.6,1504.0,304.1,-0.2,-0.4,1472.814,13.11,0.037,311.8
07,2021-11-21T19:30:00,1500.0,42.79,6.0312,-0.03,0.025,-0.002,49.0,48.0,49.0,12.6,1504.0,304.0,-0.3,-0.3,1472.796,13.11,0.039,309.8
07,2021-11-21T20:00:00,1500.0,42.79,6.0312,-0.029,0.033,-0.008,50.0,50.0,49.0,12.6,1504.0,308.7,-0.2,-0.3,1472.838,13.1,0.043,318.7
07,2021-11-21T20:30:00,1500.0,42.79,6.0312,-0.026,0.046,-0.007,46.0,49.0,48.0,12.6,1504.0,314.1,-0.3,-0.4,1472.867,13.1,0.052,330.5
07,2021-11-21T21:00:00,1500.0,42.79,6.0312,-0.025,0.042,0.009,48.0,49.0,49.0,12.6,1504.0,311.9,-0.3,0.0,1472.801,13.1,0.048,329.2
